Temp
67 74 72 70 59 56 52 62 67 68 71 76 80 74 70 72 68 57 76 79 78 75 75 76 74 75 75 76 76 76 77 77 77 77 76 76 76 76 75 75 76 76 78 79 79 78 79 78 77
67 76 73 67 55 47 53 65 66 71 77 80 79 77 72 69 77 71 72 74 75 75 73 73 73 73 74 74 74 75 75 76 77 76 76 76 76 76 75 75 75 76 77 78 79 79 78 77 75
72 77 64 58 52 50 55 67 70 74 79 79 74 78 73 70 73 72 74 75 73 72 72 72 71 72 73 73 73 73 73 74 75 75 76 76 76 76 76 75 75 76 77 78 77 78 77 75 74
74 69 66 55 54 62 64 68 75 76 79 78 75 67 72 75 72 74 73 72 71 71 72 71 70 71 72 73 73 73 73 72 73 74 75 75 76 76 76 75 75 75 76 77 77 77 76 74 73
70 65 54 52 58 64 69 73 76 76 77 75 74 64 65 71 74 72 71 71 68 68 71 72 70 71 72 73 73 73 72 72 72 72 73 74 75 75 75 75 75 75 76 76 76 76 75 74 73
64 64 51 49 59 67 69 73 76 78 75 73 68 67 66 72 70 69 69 67 67 66 67 68 70 70 71 72 71 71 71 71 71 71 72 72 72 72 74 74 74 74 74 74 74 74 74 73 73
62 56 53 56 61 63 72 74 74 71 68 70 76 65 66 68 70 69 67 66 65 64 63 63 63 66 68 70 70 70 71 71 71 70 70 71 71 72 72 73 73 74 74 73 73 73 73 72 72
67 61 56 58 61 58 72 76 75 72 68 78 75 64 59 67 70 68 65 63 63 62 60 60 61 62 62 64 69 70 71 70 71 71 70 69 70 71 72 71 72 73 73 73 72 72 72 72 71
70 56 52 56 62 64 74 73 75 74 69 71 73 70 71 72 72 66 63 61 59 61 58 58 59 60 61 66 68 67 70 69 69 69 69 67 67 68 70 71 70 70 71 71 71 72 71 71 70
63 52 56 65 65 64 72 66 73 69 67 67 70 72 73 72 68 64 61 58 57 57 57 56 56 57 59 67 61 61 65 63 63 64 63 63 63 64 68 68 69 70 70 70 70 70 70 68 71
63 57 66 66 70 71 63 68 72 67 62 67 65 66 68 67 64 62 61 58 57 57 57 56 56 55 55 57 57 58 59 59 59 60 60 59 61 61 62 62 61 63 69 69 70 70 71 70 70
58 68 69 67 70 69 68 69 65 67 64 69 68 68 66 63 61 60 58 57 56 56 56 56 55 54 54 54 54 55 57 58 58 59 58 58 56 57 58 60 61 62 62 64 67 67 68 67 68
62 66 69 71 70 65 71 65 64 63 66 69 70 68 63 61 60 59 59 58 57 55 55 54 54 53 54 54 53 54 54 55 55 57 58 57 55 54 55 57 59 60 62 60 59 63 65 65 65
66 66 66 67 68 69 66 65 64 64 66 66 65 61 61 60 60 58 57 55 55 56 55 55 54 53 53 53 53 53 53 54 55 55 56 57 54 53 53 55 56 57 58 59 59 60 60 63 64
67 60 63 65 65 65 68 57 57 64 67 63 61 60 59 59 59 56 55 55 55 55 55 54 55 53 52 52 53 53 53 55 53 55 55 55 55 53 52 52 53 55 56 56 57 58 59 58 62
59 56 49 62 67 65 64 52 57 63 62 57 58 58 57 57 57 55 55 54 53 53 53 54 57 52 51 51 51 52 52 51 53 54 54 55 55 54 52 51 52 52 54 54 55 55 56 57 58
52 45 51 58 68 63 59 51 56 62 63 58 56 55 55 54 55 54 55 53 52 52 52 51 50 49 49 49 49 49 50 50 51 50 52 52 53 52 50 50 50 51 51 52 53 54 53 54 55
47 49 48 50 61 59 55 51 59 63 62 60 57 56 55 52 52 55 54 54 52 50 51 51 50 49 48 47 47 47 47 49 48 49 50 50 48 48 46 47 47 48 48 48 48 48 50 52 53
58 53 51 51 61 58 57 55 57 60 59 55 56 55 54 52 53 54 54 53 50 49 50 49 49 47 47 47 46 46 45 46 48 47 48 46 45 45 44 44 44 45 45 45 46 46 46 46 51
58 52 50 56 63 59 54 54 61 60 61 59 57 56 53 53 52 55 52 50 48 47 48 48 48 47 46 45 43 43 43 43 44 45 45 44 44 43 44 42 43 43 43 44 45 45 43 45 48
54 51 52 53 59 55 54 48 55 62 62 62 61 60 55 54 53 54 52 49 46 46 46 48 48 46 45 45 43 42 42 42 41 41 41 41 43 42 42 42 43 42 43 41 43 44 45 42 47
50 60 60 57 52 42 56 36 51 58 58 61 59 55 55 56 55 53 51 48 46 45 46 47 48 45 46 44 41 38 36 35 37 38 39 39 40 41 42 42 42 41 41 41 41 44 43 43 42
54 62 56 55 47 44 46 43 47 57 52 54 52 54 52 53 52 50 49 49 46 45 44 45 46 45 44 42 40 37 35 35 37 37 36 37 38 39 41 40 40 39 40 40 40 40 41 42 43
63 56 54 51 46 34 46 45 43 53 57 55 56 54 53 50 49 49 50 49 45 44 44 43 44 43 42 41 39 36 34 34 33 34 34 35 36 37 37 38 38 38 38 38 38 39 39 40 42
55 47 32 30 31 32 51 46 49 54 60 58 55 54 52 51 48 48 47 45 44 42 42 44 42 41 41 39 37 36 34 34 34 35 33 34 33 33 34 35 34 35 36 37 37 37 38 39 40
50 48 33 29 30 34 50 42 45 55 59 60 60 54 53 50 50 47 46 44 44 42 39 39 40 39 39 38 36 35 34 36 36 35 34 33 32 33 34 34 34 34 35 35 36 37 36 38 40
48 43 52 41 40 33 40 45 53 55 54 55 54 53 50 49 48 46 47 44 41 38 36 36 37 38 37 36 34 32 33 35 34 35 35 32 33 34 33 33 33 33 34 34 35 34 34 36 38
54 57 40 37 29 28 37 42 36 45 48 51 51 50 52 51 48 46 46 43 40 36 34 34 35 34 34 34 32 32 31 31 31 32 32 32 33 33 32 32 32 32 33 33 34 33 34 34 34
47 46 46 43 37 28 25 30 43 43 49 48 51 54 51 48 44 41 40 36 33 33 31 31 30 31 31 32 31 29 28 30 30 30 31 31 33 34 32 32 31 30 30 31 31 32 31 31 31
53 47 44 30 34 36 32 27 52 47 49 53 55 58 53 45 41 37 33 31 28 26 27 26 28 28 29 30 29 28 27 27 28 30 32 31 30 32 30 31 31 31 30 29 28 27 29 28 28
MSLP
1010.62 1009.87 1010.03 1010.15 1011.06 1010.90 1009.57 1007.86 1006.31 1006.19 1006.16 1006.54 1006.27 1007.52 1009.49 1009.73 1010.66 1013.11 1013.42 1013.38 1014.52 1014.93 1014.37 1013.76 1013.62 1014.02 1014.22 1014.33 1014.34 1014.21 1014.17 1014.27 1014.37 1014.48 1014.57 1014.68 1014.86 1014.97 1015.09 1015.17 1015.26 1015.36 1015.42 1015.33 1015.29 1015.36 1015.33 1015.37 1015.50
1010.92 1010.10 1009.71 1010.24 1010.80 1010.70 1009.35 1007.37 1007.03 1006.41 1006.44 1006.58 1007.42 1008.22 1009.45 1010.95 1011.55 1013.54 1014.14 1014.90 1013.92 1014.54 1014.63 1014.54 1014.52 1014.58 1014.65 1014.72 1014.72 1014.56 1014.45 1014.56 1014.63 1014.70 1014.73 1014.78 1014.86 1015.02 1015.16 1015.28 1015.34 1015.41 1015.55 1015.60 1015.53 1015.50 1015.39 1015.49 1015.55
1010.81 1010.52 1010.91 1010.64 1010.27 1009.94 1008.81 1007.17 1006.57 1006.31 1006.06 1006.81 1008.00 1008.77 1010.48 1012.40 1013.12 1014.57 1015.50 1015.07 1014.89 1015.28 1015.54 1015.43 1015.30 1015.23 1015.19 1015.19 1015.12 1014.96 1014.97 1015.03 1015.01 1014.94 1014.86 1014.91 1014.92 1015.07 1015.24 1015.31 1015.33 1015.45 1015.55 1015.57 1015.54 1015.49 1015.48 1015.49 1015.65
1010.62 1010.70 1010.80 1010.40 1009.76 1008.81 1007.46 1006.53 1005.88 1006.12 1006.43 1007.33 1008.34 1010.99 1012.97 1013.37 1014.19 1015.24 1015.85 1015.60 1015.62 1015.97 1016.04 1015.89 1015.78 1015.80 1015.71 1015.52 1015.45 1015.55 1015.52 1015.48 1015.39 1015.22 1015.19 1015.13 1015.00 1015.06 1015.14 1015.29 1015.32 1015.22 1015.42 1015.40 1015.49 1015.44 1015.44 1015.49 1015.51
1010.66 1010.78 1010.99 1010.21 1008.93 1008.27 1007.05 1006.23 1005.82 1006.08 1006.93 1008.02 1008.57 1012.54 1014.02 1015.37 1015.43 1015.99 1016.17 1016.02 1016.11 1016.29 1016.28 1016.26 1016.19 1015.99 1015.97 1015.99 1015.88 1015.96 1015.97 1015.84 1015.70 1015.56 1015.48 1015.32 1015.17 1015.06 1015.04 1015.14 1015.19 1015.20 1015.22 1015.18 1015.14 1015.16 1015.11 1015.21 1015.34
1010.86 1010.84 1011.04 1010.51 1009.26 1007.72 1006.94 1006.58 1006.44 1006.39 1007.58 1008.95 1010.08 1011.73 1014.63 1015.84 1015.96 1016.46 1016.61 1016.59 1016.61 1016.72 1016.88 1016.90 1016.82 1016.68 1016.40 1016.32 1016.34 1016.23 1016.20 1016.14 1015.99 1015.90 1015.78 1015.60 1015.28 1015.26 1015.26 1015.11 1015.00 1014.85 1014.81 1014.80 1014.84 1014.90 1014.87 1014.82 1014.99
1010.65 1011.33 1010.86 1010.01 1009.22 1007.80 1006.88 1006.48 1007.15 1007.94 1008.63 1009.46 1010.05 1012.34 1015.07 1015.53 1016.29 1016.60 1016.72 1016.92 1017.23 1017.51 1017.69 1017.74 1017.51 1017.31 1017.02 1016.70 1016.57 1016.41 1016.36 1016.28 1016.21 1016.17 1016.04 1015.79 1015.52 1015.30 1015.23 1015.11 1014.89 1014.67 1014.51 1014.35 1014.25 1014.30 1014.31 1014.38 1014.44
1009.76 1010.61 1010.59 1009.43 1008.54 1007.79 1006.69 1006.73 1007.37 1008.14 1009.69 1009.76 1010.59 1012.53 1014.87 1015.55 1016.00 1016.56 1017.07 1017.61 1018.03 1018.17 1018.30 1018.31 1018.07 1017.76 1017.44 1017.18 1016.85 1016.65 1016.57 1016.53 1016.48 1016.40 1016.23 1016.03 1015.78 1015.49 1015.29 1015.24 1014.80 1014.48 1014.33 1014.25 1014.35 1014.23 1014.28 1014.24 1014.19
1009.11 1010.21 1010.38 1009.74 1008.46 1007.65 1007.09 1007.11 1007.92 1009.22 1009.96 1010.74 1011.68 1012.65 1013.81 1015.18 1016.03 1016.81 1017.46 1017.99 1018.38 1018.75 1018.86 1018.82 1018.69 1018.35 1018.03 1017.62 1017.48 1017.29 1017.13 1017.04 1016.96 1016.76 1016.60 1016.43 1016.17 1015.83 1015.44 1015.23 1014.86 1014.55 1014.21 1014.02 1014.07 1014.01 1013.97 1013.79 1013.89
1009.25 1010.01 1009.88 1009.37 1008.76 1008.15 1007.61 1007.93 1008.05 1009.77 1010.99 1012.21 1012.68 1013.67 1014.38 1015.30 1016.17 1016.89 1017.84 1018.67 1019.02 1019.39 1019.38 1019.33 1019.20 1019.05 1018.71 1018.32 1018.35 1018.07 1017.81 1017.66 1017.50 1017.30 1017.19 1016.96 1016.77 1016.51 1016.10 1015.65 1015.11 1014.65 1014.27 1014.00 1013.86 1013.64 1013.74 1013.49 1013.51
1008.63 1009.18 1009.15 1009.25 1008.78 1008.36 1008.29 1008.82 1009.10 1010.22 1012.05 1012.78 1013.29 1014.12 1014.81 1015.40 1016.42 1017.31 1018.30 1018.92 1019.45 1019.78 1019.76 1019.79 1019.68 1019.52 1019.38 1019.20 1018.97 1018.70 1018.40 1018.25 1017.94 1017.75 1017.67 1017.48 1017.32 1017.13 1016.90 1016.39 1015.86 1015.28 1014.63 1014.02 1013.50 1013.37 1013.31 1013.21 1013.18
1008.62 1008.34 1008.58 1008.79 1008.98 1008.94 1008.86 1009.45 1010.79 1010.98 1012.35 1013.12 1013.87 1014.60 1015.43 1016.31 1017.12 1017.97 1018.77 1019.33 1019.77 1020.06 1020.21 1020.21 1020.06 1019.94 1019.76 1019.66 1019.52 1019.26 1018.94 1018.77 1018.53 1018.22 1017.98 1017.77 1017.74 1017.57 1017.44 1017.15 1016.63 1015.99 1015.42 1014.79 1014.01 1013.49 1013.35 1013.30 1013.13
1008.55 1008.62 1008.35 1008.59 1008.89 1009.36 1009.30 1009.76 1011.09 1012.33 1012.60 1013.48 1014.40 1015.24 1016.18 1016.89 1017.70 1018.42 1018.98 1019.56 1020.03 1020.35 1020.45 1020.46 1020.41 1020.30 1020.08 1019.90 1019.71 1019.46 1019.33 1019.12 1018.95 1018.63 1018.36 1018.17 1018.14 1018.12 1017.86 1017.66 1017.27 1016.84 1016.13 1015.57 1015.06 1014.33 1013.66 1013.25 1013.08
1008.86 1008.94 1008.84 1008.65 1009.11 1009.34 1009.78 1010.67 1010.96 1012.83 1012.96 1013.99 1014.98 1015.96 1016.84 1017.51 1018.17 1018.84 1019.43 1020.04 1020.36 1020.65 1020.76 1020.71 1020.76 1020.67 1020.48 1020.29 1020.06 1019.89 1019.68 1019.39 1019.15 1018.98 1018.73 1018.45 1018.49 1018.39 1018.11 1017.98 1017.74 1017.33 1016.82 1016.23 1015.59 1015.03 1014.42 1013.82 1013.16
1009.12 1009.61 1009.39 1009.06 1009.11 1009.38 1009.78 1010.89 1011.88 1012.39 1013.19 1014.40 1015.50 1016.40 1017.25 1017.99 1018.49 1019.18 1019.69 1020.15 1020.45 1020.76 1020.87 1020.85 1020.81 1020.80 1020.66 1020.55 1020.40 1020.19 1019.98 1019.65 1019.57 1019.31 1018.96 1018.77 1018.64 1018.47 1018.33 1018.22 1017.92 1017.58 1017.14 1016.62 1015.96 1015.29 1014.69 1014.08 1013.38
1009.99 1010.17 1010.10 1008.88 1009.02 1009.59 1009.89 1011.10 1012.02 1012.28 1013.18 1014.67 1015.70 1016.77 1017.70 1018.55 1019.18 1019.70 1020.06 1020.53 1020.80 1021.02 1021.18 1021.20 1021.12 1021.27 1021.10 1020.97 1020.86 1020.62 1020.42 1020.23 1020.06 1019.79 1019.48 1019.22 1018.82 1018.53 1018.46 1018.31 1018.10 1017.78 1017.30 1016.86 1016.29 1015.72 1015.13 1014.52 1013.79
1010.44 1010.44 1009.91 1009.05 1008.08 1009.48 1010.14 1011.64 1012.28 1012.40 1013.30 1014.56 1015.63 1016.75 1017.71 1018.75 1019.49 1020.05 1020.35 1020.72 1021.02 1021.22 1021.40 1021.46 1021.42 1021.33 1021.26 1021.13 1020.97 1020.91 1020.81 1020.69 1020.43 1020.09 1019.84 1019.91 1019.63 1019.47 1019.26 1018.88 1018.56 1018.26 1017.83 1017.34 1016.77 1016.10 1015.75 1015.06 1014.22
1010.45 1010.16 1009.60 1009.35 1008.81 1009.27 1010.14 1011.09 1011.81 1012.31 1013.04 1014.18 1015.37 1016.52 1017.59 1018.71 1019.55 1020.03 1020.49 1020.91 1021.10 1021.38 1021.53 1021.59 1021.57 1021.48 1021.45 1021.40 1021.22 1021.09 1021.11 1020.96 1020.75 1020.59 1020.68 1020.37 1020.55 1020.32 1019.99 1019.46 1019.19 1018.78 1018.39 1017.90 1017.52 1016.91 1016.26 1015.58 1014.59
1009.95 1009.66 1009.25 1008.97 1008.67 1009.25 1010.21 1010.92 1011.64 1012.00 1012.74 1013.75 1014.71 1015.75 1017.15 1018.29 1019.09 1019.64 1020.26 1020.81 1021.34 1021.56 1021.77 1021.91 1021.89 1021.91 1021.81 1021.79 1021.74 1021.60 1021.72 1021.42 1021.30 1021.31 1021.10 1021.09 1020.93 1020.63 1020.23 1019.77 1019.37 1018.96 1018.68 1018.31 1017.86 1017.31 1016.53 1015.74 1015.08
1009.41 1009.39 1009.25 1008.87 1008.96 1009.27 1009.97 1010.41 1010.34 1011.16 1011.63 1012.62 1013.76 1015.26 1016.72 1017.99 1018.92 1019.54 1020.16 1020.65 1021.20 1021.59 1021.86 1022.10 1022.16 1022.26 1022.33 1022.37 1022.37 1022.36 1022.19 1022.03 1022.01 1021.85 1021.64 1021.53 1021.20 1020.81 1020.33 1019.96 1019.44 1019.07 1018.61 1018.19 1017.79 1017.37 1016.62 1015.90 1015.48
1009.14 1009.40 1009.44 1009.27 1008.94 1009.29 1009.90 1010.29 1010.18 1009.91 1010.71 1011.80 1012.96 1014.50 1016.01 1017.16 1018.52 1019.37 1020.16 1020.89 1021.35 1021.78 1022.11 1022.21 1022.29 1022.58 1022.68 1022.70 1022.66 1022.59 1022.49 1022.49 1022.41 1022.32 1022.14 1021.92 1021.54 1021.07 1020.51 1020.01 1019.48 1019.14 1018.71 1018.23 1017.88 1017.38 1016.65 1015.79 1015.16
1008.77 1009.05 1009.35 1009.61 1009.82 1009.91 1009.93 1010.22 1009.89 1009.55 1010.10 1011.24 1012.52 1013.99 1015.50 1016.89 1018.13 1019.11 1020.09 1020.88 1021.38 1021.84 1022.02 1022.23 1022.49 1022.75 1022.96 1022.97 1023.21 1023.43 1023.56 1023.51 1023.33 1023.04 1022.81 1022.27 1021.78 1021.30 1020.61 1020.13 1019.75 1019.32 1018.70 1018.13 1017.68 1017.08 1016.59 1016.04 1015.16
1008.76 1009.12 1009.68 1010.19 1010.56 1010.61 1010.55 1010.87 1009.11 1009.39 1010.09 1011.31 1012.49 1013.82 1015.16 1016.47 1017.72 1019.06 1019.95 1020.68 1021.37 1021.93 1022.37 1022.53 1022.83 1023.12 1023.34 1023.54 1023.66 1023.93 1024.10 1023.97 1023.78 1023.54 1023.07 1022.45 1021.99 1021.51 1020.86 1020.44 1019.95 1019.32 1018.63 1018.01 1017.47 1016.90 1016.39 1015.82 1015.12
1008.72 1009.64 1010.42 1011.02 1011.61 1011.42 1011.25 1011.15 1009.03 1009.07 1009.04 1011.03 1012.46 1013.78 1015.10 1016.46 1017.77 1018.98 1019.85 1020.76 1021.50 1021.89 1022.34 1022.69 1023.14 1023.61 1023.71 1023.90 1024.03 1024.15 1024.33 1024.42 1024.24 1023.72 1023.41 1022.74 1022.32 1021.76 1021.20 1020.74 1020.12 1019.31 1018.61 1017.96 1017.31 1016.65 1016.00 1015.40 1014.83
1009.05 1010.44 1011.98 1012.68 1012.75 1011.78 1011.02 1010.76 1009.22 1008.29 1007.90 1009.39 1011.41 1013.42 1015.11 1016.51 1017.90 1018.97 1019.91 1020.96 1021.72 1022.24 1022.71 1023.15 1023.51 1024.04 1024.12 1024.31 1024.43 1024.44 1024.64 1024.65 1024.36 1024.06 1024.05 1023.33 1022.85 1022.21 1021.63 1020.99 1020.35 1019.50 1018.68 1017.87 1017.14 1016.25 1015.46 1014.84 1014.26
1009.37 1010.60 1012.04 1012.55 1012.89 1012.29 1011.56 1010.31 1010.36 1009.26 1008.83 1009.98 1011.56 1013.44 1015.23 1016.72 1017.82 1018.87 1020.04 1021.02 1021.71 1022.46 1023.05 1023.49 1024.05 1024.46 1024.56 1024.72 1024.94 1025.07 1025.14 1024.86 1024.66 1024.44 1024.38 1024.09 1023.53 1022.72 1022.03 1021.22 1020.57 1019.76 1018.84 1018.05 1017.11 1016.16 1015.46 1014.45 1013.43
1009.33 1010.21 1011.16 1012.24 1012.87 1013.09 1012.45 1011.83 1011.30 1010.76 1010.96 1011.49 1012.69 1014.01 1015.40 1016.70 1017.72 1019.01 1020.13 1020.93 1021.93 1022.81 1023.49 1023.97 1024.49 1024.86 1025.08 1025.25 1025.43 1025.66 1025.62 1025.18 1024.98 1024.68 1024.75 1024.38 1023.78 1022.94 1022.36 1021.62 1020.83 1019.95 1018.99 1018.22 1017.35 1016.63 1015.73 1014.52 1013.19
1008.38 1009.71 1011.09 1012.24 1013.59 1013.74 1012.80 1012.20 1011.63 1011.89 1012.16 1012.58 1013.44 1014.47 1015.39 1016.43 1017.69 1019.05 1020.08 1021.29 1022.30 1023.24 1023.93 1024.39 1024.80 1025.32 1025.56 1025.72 1025.98 1026.16 1025.95 1025.65 1025.21 1025.03 1024.87 1024.43 1023.81 1023.27 1022.58 1021.98 1021.37 1020.53 1019.59 1018.83 1017.97 1017.32 1016.57 1015.64 1014.93
1008.93 1009.59 1010.74 1011.85 1012.81 1013.70 1013.56 1013.12 1012.05 1011.91 1012.15 1012.61 1013.15 1013.89 1014.75 1016.24 1017.85 1019.29 1020.56 1021.86 1022.87 1023.69 1024.34 1024.94 1025.44 1025.75 1026.00 1026.25 1026.39 1026.36 1026.23 1025.95 1025.58 1025.26 1025.01 1024.65 1024.05 1023.36 1023.00 1022.46 1021.94 1021.22 1020.47 1019.79 1018.95 1018.22 1017.60 1016.84 1016.21
1008.66 1009.38 1010.40 1011.87 1013.09 1013.50 1013.94 1013.02 1012.01 1011.97 1012.01 1012.27 1012.66 1013.09 1014.36 1016.10 1018.10 1019.75 1021.18 1022.33 1023.32 1024.20 1024.92 1025.50 1026.00 1026.27 1026.40 1026.61 1026.62 1026.58 1026.44 1026.27 1025.90 1025.55 1025.26 1024.93 1024.59 1024.04 1023.66 1023.09 1022.40 1021.84 1021.32 1020.75 1020.08 1019.49 1018.77 1018.11 1017.34
Wind_Speed
9 11 2 3 5 5 5 7 4 6 9 15 18 19 16 12 7 8 6 15 16 14 13 15 17 16 15 14 13 12 12 10 8 5 4 3 2 1 0 1 1 1 2 1 2 1 1 1 2
6 8 3 1 4 1 8 5 12 9 9 20 20 21 19 19 13 8 13 17 21 16 14 16 19 19 18 16 15 15 14 13 11 8 5 3 3 2 3 3 3 3 4 5 3 4 3 2 2
4 4 3 4 3 4 4 5 9 6 5 10 8 13 7 5 19 7 12 17 19 16 15 16 20 20 19 18 17 15 14 12 10 9 8 5 5 5 5 6 6 5 5 7 6 5 5 3 4
4 4 5 1 8 6 6 4 8 7 7 14 16 10 8 15 6 11 14 16 15 14 14 17 19 18 17 18 18 16 15 13 11 10 9 8 7 6 6 6 7 7 7 7 7 6 6 6 6
1 2 1 4 9 3 5 4 4 7 10 18 16 11 10 12 19 15 14 14 14 13 13 13 16 13 15 16 16 16 14 14 14 14 13 11 10 8 6 5 7 8 9 8 8 8 8 8 9
4 2 3 5 6 4 5 5 2 9 18 18 16 11 9 12 15 13 13 15 15 15 14 13 17 17 11 13 11 11 12 13 15 16 15 15 10 10 10 8 6 7 9 9 10 10 10 10 10
6 2 7 7 6 3 5 1 7 15 10 10 12 9 7 15 12 13 14 15 14 12 11 9 9 13 14 13 12 9 11 12 14 15 16 15 14 12 10 10 9 9 10 11 11 11 11 11 11
3 5 8 6 6 1 6 3 7 10 7 5 4 8 6 9 13 12 13 12 12 10 10 10 9 10 9 8 16 16 13 12 13 14 13 14 14 13 12 12 10 11 11 10 11 11 10 10 11
1 3 6 7 8 5 3 8 10 12 17 9 7 12 16 17 14 11 11 9 8 9 8 7 9 11 10 9 11 13 14 15 13 11 14 11 8 8 10 11 12 12 10 9 10 12 10 12 11
5 3 6 1 4 2 2 6 8 10 16 15 13 14 16 12 9 12 10 8 8 8 7 7 8 9 9 8 9 9 9 7 8 9 8 8 8 10 11 13 15 15 12 11 11 11 10 9 5
5 7 5 3 6 7 1 7 5 17 11 12 15 12 13 13 12 11 9 9 9 7 7 8 8 8 8 6 5 4 4 5 6 8 7 7 6 7 7 6 7 8 13 6 5 5 4 7 7
2 4 3 4 4 6 5 6 7 15 9 10 12 12 13 12 9 9 9 8 8 8 7 7 7 7 8 4 4 5 5 6 6 7 7 7 4 5 7 7 9 8 7 9 10 3 4 4 6
2 5 2 8 6 3 4 3 9 11 12 12 13 13 11 10 10 9 9 8 8 8 7 7 7 7 6 6 5 5 5 5 5 6 6 6 4 5 5 6 7 8 9 8 9 9 6 5 4
3 5 7 3 7 5 4 7 9 7 11 11 12 10 9 10 9 9 9 7 8 7 7 7 8 8 7 6 7 5 4 5 5 5 5 7 5 5 4 5 6 7 8 10 9 9 7 8 4
4 6 8 8 6 6 8 2 8 11 11 13 11 10 10 9 10 8 8 8 8 6 7 7 7 7 7 7 6 5 5 6 5 5 7 7 6 5 5 4 5 6 8 11 10 10 8 7 5
3 3 4 10 12 5 10 5 7 12 15 12 11 10 10 10 8 9 8 8 8 7 7 7 7 7 7 6 6 5 5 5 6 7 7 7 7 7 6 5 5 5 7 7 8 8 9 8 8
4 6 8 12 15 8 5 4 4 9 14 13 12 11 12 10 10 8 8 8 8 7 7 6 6 7 7 7 5 5 6 5 6 5 6 13 12 14 11 9 8 10 8 8 8 9 8 9 9
7 9 7 6 7 6 7 5 14 14 13 14 14 13 13 11 9 9 8 7 7 7 7 7 6 7 7 5 5 4 5 6 5 6 9 12 11 14 11 9 10 9 8 8 9 11 11 10 8
11 3 5 2 2 5 8 8 13 13 9 13 15 14 13 14 9 9 8 8 7 7 7 7 7 7 6 6 6 6 8 7 7 8 11 12 12 13 11 8 9 7 7 8 9 10 12 9 10
5 3 6 5 7 7 8 8 7 17 16 16 15 15 16 14 10 10 8 7 7 7 7 7 7 7 6 4 4 4 5 4 6 8 9 12 12 11 11 11 9 9 8 9 10 10 9 8 7
5 4 5 7 6 2 7 4 7 7 12 11 13 15 18 17 14 10 8 8 7 7 6 6 6 7 7 7 4 4 3 4 6 8 7 10 11 11 11 12 11 11 9 8 9 9 12 10 8
6 6 6 7 6 5 4 6 5 8 15 16 12 15 15 15 13 9 9 7 8 6 7 6 6 7 7 7 5 7 4 5 5 6 8 8 11 11 12 12 11 11 9 10 9 10 10 10 9
6 8 2 4 4 3 2 4 6 4 9 13 13 17 15 15 14 10 9 8 8 8 7 5 7 7 7 7 7 5 5 4 4 6 9 9 9 10 12 12 13 12 9 10 11 11 10 9 9
2 3 2 3 2 6 6 8 5 11 15 13 15 16 15 11 10 10 8 9 7 7 7 6 8 6 7 7 7 7 7 7 6 9 9 9 8 8 11 12 12 11 11 10 10 11 12 10 9
4 7 2 3 1 8 11 10 14 4 13 21 20 16 14 14 12 11 10 8 7 8 8 7 8 7 7 7 7 7 7 7 8 9 9 11 9 9 12 12 12 10 11 11 11 11 10 10 9
7 7 7 6 5 4 4 8 2 7 15 15 16 16 15 12 12 10 9 9 8 9 8 9 7 7 7 6 7 7 6 6 6 8 8 7 8 9 12 11 12 12 12 11 10 7 8 10 9
5 11 9 6 2 0 5 2 6 10 12 13 14 15 13 11 11 12 11 9 9 9 9 8 7 6 7 7 6 6 5 8 7 9 8 6 8 10 11 13 14 14 12 13 10 8 10 11 10
7 4 6 1 4 5 5 7 6 8 8 8 10 12 13 13 12 13 12 11 9 10 8 8 7 6 6 7 6 5 5 5 5 6 6 8 9 10 11 13 14 14 13 15 12 9 11 12 10
5 9 3 6 6 4 0 6 5 9 10 10 9 11 13 13 13 12 11 10 10 9 8 7 6 6 6 5 5 5 5 6 5 5 5 8 11 11 11 12 13 14 14 15 13 13 14 14 14
5 6 7 6 4 4 4 7 6 8 9 8 8 8 5 15 13 11 10 9 8 7 6 6 6 5 5 4 5 5 4 5 5 6 7 9 10 11 12 12 13 14 14 14 15 15 14 15 16
Wind_Direction
321 311 267 14 43 65 273 252 83 69 60 75 72 75 75 52 70 99 113 102 100 73 53 51 52 54 51 49 48 50 52 51 43 38 34 34 359 358 314 244 244 291 278 197 160 177 340 45 9
319 315 29 323 105 33 285 88 70 79 100 85 84 90 71 81 53 67 64 63 67 61 47 43 44 48 48 46 43 42 40 35 36 30 19 352 315 288 246 236 236 247 278 279 261 267 275 295 296
281 182 67 147 185 192 213 70 110 105 138 115 89 53 42 69 52 77 69 73 71 65 53 46 44 43 40 42 37 39 35 31 29 25 14 356 313 282 251 231 230 237 252 266 264 266 269 253 279
326 15 341 96 254 280 115 81 125 116 101 86 116 59 74 26 78 62 71 64 67 69 59 47 47 51 46 42 40 34 32 23 16 16 11 3 4 321 284 261 237 226 240 251 264 272 272 253 256
187 322 287 261 268 207 60 33 45 104 90 107 93 89 88 66 89 81 70 66 66 60 48 47 35 48 52 49 48 43 35 31 27 20 10 0 352 351 341 286 257 253 239 242 245 244 249 243 251
335 119 335 275 320 129 47 4 46 105 98 101 90 101 81 108 87 79 72 65 56 51 39 32 25 20 32 53 37 46 50 44 40 34 19 9 360 346 332 322 293 266 255 239 241 244 247 242 245
190 67 257 279 242 152 139 80 47 63 60 32 129 93 101 87 97 96 83 71 61 56 47 32 20 13 4 24 20 49 53 51 45 34 18 10 15 13 342 308 296 277 263 245 226 228 231 237 233
143 124 301 276 288 138 158 90 94 86 52 86 130 137 146 133 113 103 94 87 72 58 48 32 19 12 6 19 9 19 36 32 47 32 24 15 6 1 9 3 304 284 266 267 266 251 244 242 238
285 35 277 296 330 175 133 111 68 83 87 59 67 101 134 128 120 101 83 69 61 56 47 32 25 17 6 26 13 15 22 14 26 21 21 11 360 2 354 347 344 333 285 273 276 269 244 238 239
126 135 255 168 18 103 64 114 121 97 95 97 95 79 91 108 104 88 79 72 66 52 38 38 28 19 12 21 10 4 5 14 12 6 18 14 7 4 359 347 346 343 326 298 281 272 262 263 242
215 204 280 24 30 14 76 59 60 113 106 131 122 108 96 84 70 72 73 81 81 64 41 34 29 17 15 19 7 2 358 16 1 0 26 11 11 1 358 346 342 337 331 320 302 279 260 253 249
111 286 258 124 39 359 18 52 62 94 102 101 103 102 92 83 87 87 79 76 82 70 49 39 38 25 14 19 6 354 5 11 0 353 13 16 12 7 2 352 341 338 338 337 329 333 318 311 316
154 279 231 124 133 270 319 83 121 105 105 103 99 97 106 104 91 86 84 78 79 69 49 41 43 32 10 18 2 2 10 9 349 352 6 11 7 16 1 348 344 338 338 345 338 331 323 304 286
19 357 312 289 191 214 136 131 107 153 122 116 108 105 92 98 102 87 79 72 70 69 49 40 49 29 8 8 4 359 4 356 347 350 359 358 18 11 0 356 346 340 340 336 329 325 328 322 281
15 331 313 272 241 215 135 256 137 150 134 129 126 122 112 99 87 93 105 93 88 69 59 38 50 26 10 1 5 359 3 359 1 357 354 3 10 355 359 345 342 335 335 332 325 324 322 321 310
288 297 261 255 211 204 119 236 159 153 138 136 133 123 114 106 105 83 75 89 75 69 60 51 48 21 3 18 15 6 5 10 10 359 353 3 349 351 355 346 332 328 332 325 321 318 318 313 309
247 234 226 264 203 149 129 116 203 155 149 150 147 138 130 120 98 93 78 92 90 81 63 52 47 24 21 28 7 14 13 14 1 350 4 12 10 13 6 355 350 351 342 337 327 330 328 322 319
220 224 269 227 186 140 188 156 170 182 167 163 156 152 148 130 132 120 105 92 92 75 57 49 38 31 34 22 358 10 17 3 351 6 11 14 15 10 2 353 350 343 336 337 340 331 329 315 301
255 266 284 311 123 110 183 161 188 191 184 165 166 163 143 140 148 128 129 108 94 70 55 43 35 32 37 16 13 20 4 357 8 16 8 17 3 358 347 344 341 336 331 320 326 318 317 321 324
223 258 284 295 184 150 203 217 215 192 198 176 169 160 139 138 139 141 135 119 103 91 61 48 34 49 39 24 14 24 351 9 18 1 7 3 353 350 346 335 333 333 327 326 319 306 306 302 308
256 223 256 266 294 159 149 241 242 221 176 175 169 155 144 150 149 145 134 126 107 93 77 60 36 65 46 34 19 5 359 360 5 5 356 350 349 345 338 338 336 335 328 322 313 305 299 296 290
221 241 255 264 249 239 119 282 262 245 183 180 162 146 150 149 144 141 137 127 123 117 90 67 45 66 52 38 33 36 21 3 0 351 349 345 342 337 338 340 336 325 317 313 309 300 300 295 289
238 264 282 298 309 341 318 287 231 173 172 164 135 131 133 137 142 145 131 130 131 110 99 75 63 67 51 45 50 45 27 354 346 357 343 344 337 340 342 342 330 325 317 307 308 307 299 296 278
200 111 343 335 48 277 191 211 240 232 194 156 143 143 146 142 124 124 124 124 119 102 84 68 71 63 52 49 54 52 35 7 8 358 351 348 343 345 342 341 333 327 324 320 314 305 294 287 281
104 101 335 328 246 238 199 223 239 244 174 157 151 145 140 136 134 131 142 132 115 100 84 74 62 55 48 52 54 48 39 15 13 8 354 352 344 345 345 348 340 336 330 323 318 305 290 281 272
178 158 165 214 200 274 288 239 256 64 85 130 145 137 137 141 145 151 138 132 118 107 88 70 57 53 37 57 55 41 28 22 22 9 4 347 338 341 350 349 345 342 334 336 325 333 334 310 270
196 217 207 264 336 9 246 63 49 79 77 88 121 132 143 149 145 133 132 121 114 106 93 81 63 50 33 55 61 37 18 27 18 12 359 344 337 358 357 358 355 348 346 348 347 353 351 351 7
161 167 186 95 200 221 242 228 192 149 133 127 128 153 167 161 153 145 131 121 104 101 93 77 69 62 46 56 45 45 15 15 17 4 351 349 345 4 4 5 2 358 0 2 356 8 4 14 20
162 218 181 154 157 175 219 274 212 168 165 166 181 190 184 164 148 137 128 108 104 97 91 86 83 66 54 48 54 45 19 7 8 352 4 5 4 14 12 7 9 9 8 10 9 16 16 21 17
196 189 144 128 246 212 173 267 174 152 146 161 197 190 156 141 136 124 118 119 106 104 106 94 89 77 68 61 59 46 23 4 3 359 32 19 16 21 16 10 15 18 19 17 17 16 13 19 19